Regional Weather Roundup
Issued by NWS Northern Indiana

Home | Current Version | Previous Version | Graphics & Text | Print | Product List | Glossary On
Versions: 1 2 3 4 5 6 7 8 9 10 11 12 13 14 15 16 17 18 19 20 21 22 23 24 25 26 27 28 29 30 31 32 33 34 35 36 37 38 39 40 41 42 43 44 45 46 47 48 49 50
000
ASUS43 KIWX 310110
RWRIWX

KIWX WEATHER ROUNDUP
NATIONAL WEATHER SERVICE NORTHERN INDIANA
900 PM EDT SAT AUG 30 2014

NOTE: "FAIR" INDICATES FEW OR NO CLOUDS BELOW 12,000 FEET WITH NO
SIGNIFICANT WEATHER AND/OR OBSTRUCTIONS TO VISIBILITY.

* THESE STATIONS ARE NOT UNDER NWS QUALITY CONTROL. THEY ALSO MAY NOT
  REPORT WEATHER SUCH AS PRECIPITATION OR FOG.

INZ001>027-310200-
NORTHERN INDIANA

CITY           SKY/WX    TMP DP  RH WIND       PRES   REMARKS
GARY*          MOCLDY    75  72  88 S5        29.89R
VALPARAISO     HVY RAIN  73  70  90 W9        29.92R FOG
MICHIGAN CITY* HVY RAIN  70  68  94 S9G16     29.90R
LAPORTE*       CLOUDY    74  72  94 SW5       29.91R THUNDER
KNOX*          CLOUDY    75  70  86 SW6       29.90R
SOUTH BEND     LGT RAIN  74  71  91 N9        29.91R
GOSHEN         CLOUDY    77  70  79 S14       29.91R
MONTICELLO*    MOCLDY    75  70  85 S9        29.92S
LOGANSPORT*    CLOUDY    73  66  78 S12       29.95S
ROCHESTER*     CLOUDY    77  70  78 S12       29.94R
WARSAW*        CLOUDY    75  68  78 SW6G18    29.92S
ANGOLA*        CLEAR     77  70  78 SW13      29.93R
FORT WAYNE     CLOUDY    75  69  81 SW15      29.96R
HUNTINGTON*    CLOUDY    74  70  85 S6        29.96R
PERU/GRISSOM   CLOUDY    75  73  95 S10       29.95R
MARION*        CLOUDY    74  69  83 S12       29.97S

$$
INZ028>050-310200-
CENTRAL INDIANA

CITY           SKY/WX    TMP DP  RH WIND       PRES   REMARKS
LAFAYETTE      MOCLDY    75  70  84 S9        29.93R
KOKOMO*        CLOUDY    75  68  78 S12       29.95F
MUNCIE*        CLOUDY    76  69  79 S12G18    29.99R
INDIANAPOLIS   CLOUDY    75  70  84 S14       29.97R

$$
MIZ043>046-050>051-056>058-064>065-071>073-077>080-310200-
SOUTHWEST LOWER MICHIGAN

CITY           SKY/WX    TMP DP  RH WIND       PRES   REMARKS
BATTLE CREEK   CLOUDY    75  67  76 SW13      29.91R
BENTON HARBOR  PTCLDY    74  69  85 SW5       29.88R
COLDWATER*     LGT RAIN  72  69  92 SW3       29.92R
HILLSDALE*     CLOUDY    77  71  79 SW7G17    29.93R
HOLLAND        PTCLDY    75  68  78 SW7       29.88R
GRAND RAPIDS   MOCLDY    76  71  85 SW9       29.87R
KALAMAZOO      TSTM      70  66  87 SW18G24   29.91R FOG
STURGIS*       RAIN      72  72 100 SW6       29.91R
THREE RIVERS*  MOCLDY    75  69  81 SW6       29.90F

$$
OHZ001>008-015>018-024>025-310200-
NORTHWEST OHIO

CITY           SKY/WX    TMP DP  RH WIND       PRES   REMARKS
WAUSEON*       MOCLDY    77  70  78 SW13      29.94R
DEFIANCE       CLOUDY    77  68  73 SW14G22   29.94R
FINDLAY        MOCLDY    77  68  73 SW12      29.96R
TOLEDO EXPRESS MOCLDY    77  68  73 SW15      29.93R
TOLEDO METCALF MOCLDY    78  67  68 SW12      29.94R
LIMA           CLOUDY    77  68  73 SW9       29.98S

$$
&&


USA.gov is the U.S. government's official web portal to all federal, state and local government web resources and services.